Weather History for Cairo Airport, Egypt

Change the Weather History Date:

Tuesday, January 14, 2014

  Actual Average Record
Temperature  
Mean Temperature 60 °F -  
Max Temperature 68 °F 65 °F - ()
Min Temperature 52 °F 48 °F - ()
Degree Days  
Heating Degree Days 5    
Growing Degree Days 10 (Base 50)    
Moisture  
Dew Point 52 °F    
Average Humidity 74    
Maximum Humidity 100    
Minimum Humidity 35    
Precipitation  
Precipitation 0.00 in 0.01 in - ()
Sea Level Pressure  
Sea Level Pressure 30.03 in    
Wind  
Wind Speed 6 mph ()    
Max Wind Speed 10 mph    
Max Gust Speed -    
Visibility 4.4 miles    
Events      
T = Trace of Precipitation, MM = Missing Value Source: Averaged Metar Reports

Daily Weather History Graph

Daily Weather History Graph

Search for Another Location

Airport:

Trip Planner

Search our weather history database for the weather conditions in past years. The results will help you decide how hot, cold, wet, or windy it might be!

Date:

Astronomy

Jan. 14, 2014 Rise Set
Actual Time 6:51 AM EET 5:15 PM EET
Civil Twilight 6:25 AM EET 5:41 PM EET
Nautical Twilight 5:56 AM EET 6:10 PM EET
Astronomical Twilight 5:27 AM EET 6:39 PM EET
Moon 4:01 PM EET (1/14) 5:12 AM EET (1/14)
Length of Visible Light 11h 16m
Length of Day
10h 24m
Waxing Gibbous, 97% of the Moon is Illuminated
Jan 14
Waxing Gibbous
Jan 16
Full
Jan 24
Last Quarter
Jan 30
New
Feb 6
First Quarter

Hourly Weather History & Observations

Time (EET) Temp. Dew Point Humidity Pressure Visibility Wind Dir Wind Speed Gust Speed Precip Events Conditions
12:00 AM 59.0 °F 53.6 °F 82% 30.06 in - ENE 8.1 mph - N/A   Clear
12:30 AM 59.0 °F 53.6 °F 82% 30.06 in - ENE 8.1 mph - N/A   Clear
1:00 AM 59.0 °F 55.4 °F 88% 30.06 in - NE 5.8 mph - N/A   Clear
1:30 AM 59.0 °F 55.4 °F 88% 30.04 in - NE 5.8 mph - N/A   Clear
2:00 AM 58 °F 55 °F 87% 30.06 in 6 mi ENE 9.2 mph - -   Partly Cloudy
2:00 AM 59.0 °F 55.4 °F 88% 30.06 in - ENE 9.2 mph - N/A   Clear
2:30 AM 57.2 °F 55.4 °F 94% 30.04 in - ENE 5.8 mph - N/A   Clear
3:00 AM 57.2 °F 55.4 °F 94% 30.06 in - Calm Calm - N/A   Clear
3:30 AM 55.4 °F 53.6 °F 94% 30.06 in - NE 4.6 mph - N/A   Clear
4:00 AM 53.6 °F 53.6 °F 100% 30.04 in - NE 4.6 mph - N/A   Clear
4:30 AM 53.6 °F 51.8 °F 94% 30.04 in - East 5.8 mph - N/A   Clear
5:00 AM 53.6 °F 53.6 °F 100% 30.04 in - East 6.9 mph - N/A   Clear
5:30 AM 53.6 °F 53.6 °F 100% 30.01 in 3.7 mi East 5.8 mph - N/A   Unknown
6:00 AM 53.6 °F 51.8 °F 94% 30.04 in 3.7 mi ENE 3.5 mph - N/A   Unknown
6:30 AM 51.8 °F 50.0 °F 94% 30.04 in 3.7 mi NE 5.8 mph - N/A   Unknown
7:00 AM 53.6 °F 51.8 °F 94% 30.04 in 2.5 mi North 3.5 mph - N/A   Mist
8:00 AM 52 °F 52 °F 98% 30.07 in 2 mi NE 4.6 mph - -   Mist
9:30 AM 59.0 °F 51.8 °F 77% 30.06 in 3.7 mi NNE 5.8 mph - N/A   Scattered Clouds
10:00 AM 59.0 °F 51.8 °F 77% 30.06 in 3.7 mi NNE 5.8 mph - N/A   Unknown
10:30 AM 60.8 °F 51.8 °F 72% 30.04 in 3.7 mi NNE 5.8 mph - N/A   Unknown
11:00 AM 62 °F 52 °F 60% 30.03 in 4 mi NE 4.6 mph - -   Haze
11:00 AM 62.6 °F 51.8 °F 68% 30.04 in 3.7 mi NE 4.6 mph - N/A   Unknown
11:30 AM 64.4 °F 50.0 °F 59% 30.01 in - NNE 5.8 mph - N/A   Clear
12:00 PM 64.4 °F 50.0 °F 59% 30.01 in - NNE 5.8 mph - N/A   Clear
12:30 PM 66.2 °F 48.2 °F 52% 29.98 in - NNE 5.8 mph - N/A   Clear
1:00 PM 66.2 °F 46.4 °F 49% 29.98 in 6.2 mi North 3.5 mph - N/A   Scattered Clouds
2:00 PM 68.0 °F 46.4 °F 46% 29.98 in 6.2 mi North 4.6 mph - N/A   Scattered Clouds
2:30 PM 68.0 °F 46.4 °F 46% 29.98 in 6.2 mi North 4.6 mph - N/A   Scattered Clouds
3:00 PM 68.0 °F 48.2 °F 49% 29.98 in 6.2 mi North 4.6 mph - N/A   Partly Cloudy
3:30 PM 68.0 °F 48.2 °F 49% 29.98 in 6.2 mi North 3.5 mph - N/A   Partly Cloudy
4:00 PM 68.0 °F 46.4 °F 46% 29.98 in 6.2 mi North 5.8 mph - N/A   Partly Cloudy
4:30 PM 66.2 °F 46.4 °F 49% 29.98 in 6.2 mi NNE 5.8 mph - N/A   Partly Cloudy
5:00 PM 67 °F 46 °F 35% 29.99 in 4 mi NNE 3.5 mph - -   Haze
5:00 PM 66.2 °F 46.4 °F 49% 29.98 in 3.7 mi NNE 3.5 mph - N/A   Unknown
5:30 PM 66.2 °F 46.4 °F 49% 30.01 in 3.7 mi NNE 3.5 mph - N/A   Unknown
6:00 PM 64.4 °F 51.8 °F 64% 30.01 in 3.7 mi North 6.9 mph - N/A   Unknown
6:30 PM 64.4 °F 51.8 °F 64% 30.01 in 3.7 mi North 6.9 mph - N/A   Unknown
7:00 PM 62.6 °F 51.8 °F 68% 30.04 in 3.7 mi NNE 9.2 mph - N/A   Unknown
7:30 PM 60.8 °F 53.6 °F 77% 30.04 in 3.7 mi NNE 10.4 mph - N/A   Unknown
8:00 PM 61 °F 53 °F 67% 30.06 in 6 mi NE 9.2 mph - -  
8:00 PM 60.8 °F 53.6 °F 77% 30.04 in - NE 9.2 mph - N/A   Clear
8:30 PM 59.0 °F 53.6 °F 82% 30.06 in - ENE 8.1 mph - N/A   Clear
9:00 PM 59.0 °F 53.6 °F 82% 30.06 in - ENE 6.9 mph - N/A   Clear
9:30 PM 59.0 °F 53.6 °F 82% 30.06 in - ENE 6.9 mph - N/A   Clear
10:00 PM 57.2 °F 51.8 °F 82% 30.06 in - ENE 6.9 mph - N/A   Clear
10:30 PM 57.2 °F 51.8 °F 82% 30.06 in 3.7 mi ENE 6.9 mph - N/A   Unknown
11:00 PM 56 °F 53 °F 84% 30.09 in 4 mi ENE 6.9 mph - -   Mist
11:00 PM 57.2 °F 51.8 °F 82% 30.06 in 3.7 mi ENE 6.9 mph - N/A   Unknown
11:30 PM 57.2 °F 53.6 °F 88% 30.06 in 3.7 mi ENE 6.9 mph - N/A   Unknown